Theta_e
322 324 326 327 326 327 327 325 324 323 322 320 308 303 303 304 305 306 306 307 309 309 310 313 314 314 317 315 317 319 320 320 323 325 331 332 332 331 329 330 330 329 329 328 328 326 320
321 322 322 324 325 327 327 327 325 324 323 321 318 305 303 303 304 305 306 307 308 309 311 314 314 316 317 315 318 320 321 320 327 328 331 330 331 330 327 324 325 325 321 318 318 317 315
320 321 321 323 324 325 327 327 327 325 324 323 320 316 304 303 304 305 306 307 308 309 310 313 313 314 315 316 319 321 322 323 328 328 330 329 328 328 324 321 322 319 315 315 315 315 313
317 320 321 322 323 324 325 327 327 326 325 324 322 320 313 303 304 305 306 308 308 309 309 313 314 313 315 317 318 321 322 324 327 329 327 326 327 326 323 321 320 318 316 317 316 315 314
306 313 318 321 321 322 325 325 327 327 326 325 324 322 320 304 304 305 306 308 308 308 309 313 314 313 313 316 319 320 322 324 325 325 325 325 324 323 323 320 318 318 319 317 318 316 315
301 304 311 318 320 321 323 325 325 327 327 326 325 323 321 313 303 305 307 308 309 310 310 313 314 313 313 314 318 319 319 323 324 323 321 324 324 318 318 315 320 319 316 316 315 315 313
302 301 302 308 316 320 321 323 325 325 326 327 326 325 323 320 303 305 308 309 316 312 312 312 313 313 313 314 316 317 318 320 321 321 319 321 321 321 322 317 318 317 315 316 314 314 312
300 301 302 301 306 316 319 321 323 325 325 326 327 325 323 321 303 305 314 315 314 313 313 311 313 312 312 313 314 316 317 317 318 318 319 315 319 314 314 319 314 316 315 314 313 312 312
299 300 300 301 302 305 314 318 321 323 326 326 327 325 324 322 303 304 308 315 312 312 314 311 312 312 312 313 312 313 314 315 316 317 317 317 314 313 314 313 315 314 313 311 311 311 312
298 299 299 300 301 301 305 315 318 321 325 325 327 326 325 322 303 306 306 307 308 309 314 314 311 311 312 313 312 312 314 314 316 315 313 312 312 313 314 314 314 313 313 313 310 309 311
297 297 298 298 299 300 301 306 315 318 321 325 325 325 325 322 309 309 311 310 307 311 307 312 310 310 312 313 312 311 313 314 315 314 315 313 311 312 312 312 313 313 313 313 312 310 311
297 297 297 298 298 298 299 301 306 316 320 323 325 326 324 322 304 312 312 307 310 306 306 311 310 310 311 312 311 311 313 314 314 312 311 311 312 311 312 312 313 313 313 313 311 311 311
298 297 297 297 298 298 299 300 301 309 319 322 324 325 324 323 305 308 311 308 306 304 310 309 309 310 311 311 311 311 311 312 312 312 312 312 311 311 312 311 311 312 313 315 312 312 312
296 297 296 297 297 297 297 298 300 303 315 321 324 324 325 323 312 311 309 311 300 306 312 310 310 310 311 311 311 311 311 310 311 314 311 311 311 310 311 312 312 312 314 317 318 319 321
296 296 296 296 297 297 297 297 299 300 310 319 321 323 325 324 311 317 313 303 306 310 310 308 310 310 311 312 311 311 310 311 311 312 312 312 311 310 309 310 312 313 312 317 317 315 318
294 296 296 296 296 296 297 296 297 300 303 314 317 321 323 324 312 316 309 308 312 314 308 309 309 311 311 311 311 311 311 312 313 314 315 314 311 309 310 310 312 315 314 315 310 310 314
294 295 296 296 296 296 296 295 296 299 302 311 314 317 320 324 309 317 305 307 314 312 310 309 310 310 312 311 310 311 313 313 313 312 313 312 309 308 309 309 310 313 315 317 314 312 315
294 294 295 296 296 296 296 295 295 298 303 310 313 314 319 321 315 312 306 312 313 309 310 311 310 311 311 311 311 312 313 313 312 311 311 314 307 307 308 309 309 311 314 317 311 310 312
294 294 295 296 296 296 295 295 294 297 303 308 313 316 313 313 309 312 311 313 314 309 309 310 310 311 311 311 311 312 312 311 312 312 311 312 310 310 309 309 308 308 311 309 307 309 312
293 294 295 296 296 296 295 295 294 296 304 308 312 309 311 308 306 311 312 310 313 313 310 310 310 310 311 311 313 311 311 311 311 310 311 311 311 309 310 310 307 306 309 306 308 310 311
292 293 295 296 296 296 295 295 295 295 303 305 309 308 312 308 308 311 311 311 312 314 310 311 310 309 310 311 313 313 311 310 310 311 311 308 308 310 311 315 310 309 306 310 309 310 311
293 293 295 295 295 296 295 295 296 296 302 304 309 310 312 311 309 310 312 310 310 312 310 309 310 310 311 309 310 311 311 310 309 310 310 309 308 312 312 312 312 311 311 310 310 310 310
293 293 294 295 295 295 296 296 297 296 301 304 307 311 313 312 310 311 312 311 311 312 313 311 311 310 310 311 313 313 312 312 311 309 310 309 308 308 309 309 307 307 308 309 310 311 309
292 293 294 295 295 295 296 296 296 297 300 304 306 312 313 308 310 310 311 313 312 311 313 312 312 310 311 313 313 312 312 311 311 311 311 309 308 304 306 306 301 307 307 309 310 310 309
292 293 295 295 295 295 295 296 296 297 298 302 307 310 313 308 311 311 312 314 312 313 314 313 312 312 313 312 305 306 304 306 307 311 311 310 307 306 305 306 307 308 308 307 307 307 308
293 294 295 295 295 295 295 296 296 296 297 298 304 305 308 312 310 312 311 315 314 312 312 313 313 312 313 307 302 303 307 307 307 310 307 309 307 307 306 306 306 307 307 307 306 304 307
293 294 295 295 295 295 295 295 295 296 296 297 301 303 305 314 315 310 311 313 315 314 310 312 312 314 312 298 302 307 309 308 307 308 305 306 305 304 303 306 308 308 307 307 306 306 308
293 294 294 294 294 294 294 294 293 295 296 296 298 303 306 310 316 312 312 313 316 315 309 312 309 310 306 303 305 304 305 307 308 308 306 307 305 302 302 301 308 308 306 306 305 307 308
293 294 294 293 293 294 294 293 293 295 297 297 298 302 305 307 313 315 314 315 316 317 316 312 311 311 312 305 302 303 307 302 307 309 306 307 305 306 306 306 307 307 307 308 308 308 307
Wind_Speed
14 14 15 14 12 10 9 7 8 9 11 14 15 13 11 10 9 9 9 5 3 5 6 6 7 2 4 8 9 10 12 3 12 10 19 17 21 15 9 15 35 17 16 19 24 20 17
19 17 15 16 13 12 12 11 9 9 10 11 14 14 12 10 9 9 9 6 2 3 3 7 8 6 5 8 10 13 16 6 11 14 16 6 25 30 17 8 8 18 29 24 28 21 16
23 22 19 13 14 14 14 14 13 12 9 10 12 14 14 12 10 9 8 7 3 2 3 5 7 5 8 6 9 12 15 12 16 14 30 25 13 6 18 24 36 35 21 17 20 10 9
30 25 22 20 16 15 16 15 14 14 11 9 11 13 15 12 11 9 8 6 3 2 4 4 5 5 4 4 9 11 15 14 21 25 22 17 18 27 7 30 16 9 5 6 7 20 15
23 32 29 23 21 19 18 17 15 14 14 11 11 12 15 14 11 10 7 4 1 2 5 7 5 4 2 3 7 12 15 20 23 23 18 13 11 18 22 13 6 3 3 3 3 22 7
12 14 27 31 25 22 20 18 18 17 16 14 11 11 13 14 12 9 6 0 3 4 6 6 3 5 3 4 4 5 6 14 16 16 10 9 8 6 3 3 5 6 5 4 6 10 4
12 14 14 24 32 28 24 18 18 18 18 17 14 11 12 13 11 9 3 3 0 3 8 3 3 7 5 7 3 4 8 8 8 3 3 6 9 5 20 8 3 6 6 6 4 6 5
12 12 13 13 21 33 28 22 18 17 19 20 17 13 11 10 8 6 4 6 6 5 4 3 5 5 4 6 4 2 5 6 4 2 3 6 4 5 7 11 9 3 7 4 1 2 4
13 13 14 13 13 18 31 26 18 16 19 21 20 14 11 8 6 4 3 3 4 2 4 2 3 3 4 4 4 3 5 4 4 4 2 6 3 6 4 4 8 3 8 7 6 4 2
14 16 14 15 14 15 19 33 28 20 18 20 20 16 11 5 4 4 2 1 3 3 4 3 3 4 4 5 3 3 4 4 3 5 3 5 6 3 4 4 2 5 2 3 8 5 4
14 15 16 16 16 16 14 24 35 29 20 17 20 18 12 6 4 3 2 1 2 1 3 3 3 5 7 2 6 2 3 4 3 3 5 2 4 5 6 1 1 3 3 5 4 3 2
16 16 16 16 15 15 15 16 28 33 24 21 22 19 16 11 10 5 3 3 3 6 5 3 4 3 4 2 2 3 2 5 3 5 7 3 2 2 1 3 3 1 5 8 5 2 2
18 18 18 17 16 14 14 14 18 28 28 23 25 22 21 15 8 9 5 5 5 5 4 4 4 4 5 2 2 2 2 2 4 5 1 3 3 3 2 4 6 7 6 4 4 3 6
21 19 19 19 17 15 15 15 15 20 29 25 27 25 23 20 10 9 8 4 4 5 5 3 4 6 4 7 2 2 4 1 1 3 3 5 1 3 5 3 4 1 6 5 5 3 4
22 21 20 20 19 16 16 17 16 16 29 27 25 24 27 22 12 10 8 3 8 7 5 7 4 4 4 2 6 3 5 5 5 6 4 4 1 1 5 4 2 3 2 3 5 2 0
23 22 21 21 20 18 15 16 16 14 19 23 14 22 30 26 17 13 3 6 5 6 6 5 6 5 7 7 6 5 4 4 4 5 6 3 4 4 2 2 3 2 3 2 3 1 4
24 24 22 22 21 19 16 15 15 14 12 12 11 8 13 26 20 10 4 7 6 7 11 6 6 5 6 6 6 6 4 3 1 3 3 4 4 4 3 3 6 1 1 4 4 4 4
27 25 24 23 22 20 16 15 15 14 11 12 9 4 8 33 9 4 3 6 6 10 6 3 4 3 5 3 5 7 8 3 0 7 5 1 5 3 4 2 1 2 5 5 5 4 3
26 27 26 24 23 21 17 16 15 16 16 13 7 5 10 30 7 3 4 5 3 5 5 5 3 3 3 6 4 3 3 2 4 4 6 5 1 2 6 5 4 3 2 4 3 3 4
26 27 27 25 24 22 19 17 17 18 20 13 7 3 10 13 13 8 7 7 4 9 8 7 5 5 3 3 2 6 2 3 4 5 9 6 4 6 7 4 4 1 3 1 4 3 3
28 27 27 27 25 21 20 18 18 20 25 15 10 6 10 5 12 13 16 9 8 4 7 15 2 5 6 4 3 4 3 2 4 4 3 5 4 2 4 4 4 5 5 7 7 8 7
29 28 28 27 26 22 22 20 19 22 26 22 6 6 7 3 21 18 12 8 18 11 8 6 8 8 6 6 6 8 7 5 5 1 3 2 2 2 3 4 8 5 9 9 10 8 9
30 29 28 28 26 22 20 20 23 24 28 15 14 8 5 11 19 10 13 15 15 13 8 24 14 7 6 7 6 3 10 9 13 8 4 5 5 3 4 3 3 5 10 14 6 5 5
30 29 29 29 27 24 20 21 24 26 29 19 20 5 7 3 12 19 22 22 9 20 7 10 21 10 8 18 16 14 16 12 7 5 9 6 5 3 2 3 1 7 5 6 10 10 8
31 29 32 30 28 25 22 20 23 27 28 29 18 9 3 2 16 23 16 17 19 14 12 11 18 19 26 14 4 5 5 6 5 2 2 4 5 2 3 3 6 7 0 2 4 2 2
30 30 30 29 29 25 23 21 19 23 29 32 34 21 6 4 13 31 27 26 8 6 3 1 9 35 26 6 4 5 4 6 3 1 5 6 5 4 2 3 5 6 2 1 3 4 7
31 32 30 31 28 26 24 22 19 17 28 31 33 28 16 7 6 30 21 12 23 8 4 3 12 8 8 3 3 3 3 5 5 7 4 3 2 5 2 2 7 8 4 2 2 6 7
31 30 30 29 28 26 23 21 20 15 24 31 37 27 16 8 5 24 26 23 14 23 5 9 7 1 4 4 4 4 3 6 4 4 6 7 6 3 3 3 8 5 4 4 3 2 3
31 28 27 28 26 25 22 21 21 16 22 30 32 28 26 17 7 14 22 27 28 19 19 19 6 10 9 4 0 3 1 1 5 3 2 3 7 5 8 6 5 5 4 6 6 6 11
Wind_Direction
252 247 243 246 258 261 267 282 303 326 347 359 359 351 343 339 330 320 320 328 0 13 15 44 26 1 29 54 8 11 18 32 19 59 124 110 83 75 89 94 79 84 97 103 118 121 113
242 252 249 245 246 257 260 264 280 298 322 345 355 353 346 340 331 318 314 317 351 36 46 49 45 54 64 64 19 25 21 52 55 113 122 89 99 104 91 73 66 121 103 104 111 109 121
244 243 251 248 251 249 254 262 268 275 296 326 339 349 348 341 331 316 311 310 319 65 106 63 47 61 82 39 50 43 53 79 105 119 103 105 108 85 96 85 112 113 103 96 121 125 132
242 242 240 244 245 244 250 255 264 263 278 304 320 337 347 342 330 318 311 308 312 72 136 112 61 70 100 90 63 97 94 107 109 114 106 99 109 109 79 118 103 95 56 119 216 150 173
245 245 244 241 246 249 246 250 260 261 267 278 303 323 339 339 330 322 314 315 11 83 139 135 85 99 81 79 101 88 85 97 119 115 107 112 96 102 119 112 74 355 158 164 177 194 143
276 254 244 243 245 250 250 243 250 252 261 264 280 305 325 339 331 333 323 322 109 107 120 134 97 110 87 43 74 51 78 125 124 125 106 101 93 85 55 126 165 174 127 224 195 207 152
285 273 271 249 241 243 243 247 242 246 253 261 264 282 308 336 333 345 331 147 58 81 58 47 32 99 113 104 102 43 53 100 136 84 82 38 111 143 190 196 98 155 144 154 241 202 140
274 276 276 273 250 239 238 238 241 243 249 252 258 260 287 326 336 333 45 83 60 343 332 33 121 125 145 108 106 57 64 67 59 41 89 36 150 179 198 238 269 105 133 208 334 194 127
264 275 273 278 270 249 239 237 240 240 243 242 250 250 268 310 333 286 165 75 24 329 275 260 162 166 154 123 87 48 24 33 59 51 153 140 217 298 108 68 66 82 162 181 170 159 97
267 266 276 270 276 263 250 236 240 242 237 234 243 242 250 287 282 255 155 259 4 341 53 249 233 188 161 128 77 86 50 52 48 127 112 89 352 346 79 93 87 111 321 177 125 103 210
271 268 271 275 272 272 263 239 233 242 238 232 237 242 234 243 236 230 162 139 126 288 44 255 150 163 159 158 140 40 70 82 84 39 95 250 16 17 74 81 95 161 138 145 142 113 44
261 266 270 270 272 273 270 257 233 230 240 228 235 234 228 236 231 201 199 155 140 47 256 194 145 169 109 96 109 89 70 105 113 68 33 129 43 62 219 43 57 104 55 41 62 68 339
257 260 266 268 271 270 271 264 248 229 227 223 226 221 222 222 222 211 183 155 51 130 282 208 170 146 135 150 54 97 69 61 134 103 8 37 357 342 356 70 6 67 59 9 355 1 228
254 255 259 263 265 268 267 264 262 241 221 225 216 220 215 215 189 200 174 63 104 227 212 222 134 128 185 144 153 169 106 252 211 103 121 150 273 357 337 80 157 56 133 149 209 220 278
252 254 256 258 263 263 268 265 257 251 224 226 227 217 221 207 186 189 182 88 201 204 186 139 82 144 195 87 121 118 197 206 219 171 145 128 353 28 39 18 68 264 124 167 119 7 30
249 250 251 252 258 261 268 261 254 256 237 223 234 222 220 207 185 185 123 222 219 211 144 108 153 166 194 179 123 147 199 230 186 190 158 151 96 360 347 34 31 61 153 73 1 205 255
250 246 246 248 250 256 259 264 247 250 236 216 214 209 221 197 185 196 171 223 233 209 159 134 179 160 211 166 144 165 210 2 55 104 147 113 109 285 22 208 191 95 225 59 119 143 182
245 245 242 243 246 248 250 256 245 237 207 189 185 209 203 184 152 189 183 197 219 174 153 134 128 120 157 185 145 176 187 195 18 154 111 88 126 165 195 261 321 209 208 153 127 245 236
244 243 240 238 240 242 239 243 238 223 203 194 185 126 170 164 154 204 260 229 236 170 148 155 138 147 157 161 150 174 135 173 192 106 148 170 24 53 346 353 355 227 27 88 109 86 211
241 241 236 234 235 236 233 234 231 215 202 195 167 131 152 187 147 200 197 203 217 217 162 148 144 126 117 132 96 174 126 7 357 104 117 126 146 164 187 195 146 203 223 168 134 140 190
234 237 233 231 227 228 229 228 223 209 204 206 208 213 160 173 195 195 206 181 188 202 189 164 88 160 154 144 121 145 115 75 28 122 90 104 172 146 229 222 190 196 193 190 194 215 187
230 233 232 228 224 223 221 219 216 204 205 217 201 167 160 185 179 195 195 207 189 213 160 201 145 172 172 144 170 193 141 183 190 188 123 64 216 154 294 242 224 237 239 216 221 245 247
229 228 229 223 217 216 216 219 208 199 208 213 220 202 155 173 176 180 203 202 198 175 221 189 166 143 169 194 147 208 188 171 169 144 139 136 125 102 255 338 9 328 236 219 202 205 177
227 226 224 217 214 213 212 214 208 204 213 206 214 164 175 201 181 195 196 211 200 202 190 181 174 150 184 149 112 96 81 72 146 167 151 138 116 113 219 18 323 240 272 236 222 251 215
224 224 222 209 211 208 209 211 210 210 215 212 199 226 160 185 190 214 208 203 208 215 206 185 194 190 152 138 65 44 354 21 328 269 173 128 116 106 143 203 289 298 31 206 186 292 357
221 220 219 210 206 205 205 210 210 214 214 218 227 224 290 183 206 195 202 191 184 151 72 199 180 155 157 90 84 139 188 192 246 177 47 80 60 122 130 148 231 241 256 5 75 289 325
220 215 204 203 202 202 205 210 214 220 214 218 229 229 238 264 203 194 188 178 193 159 107 124 147 134 157 90 98 137 216 177 168 181 174 94 32 167 136 205 283 249 219 79 105 241 341
220 206 199 200 203 206 208 212 220 231 216 215 226 220 229 273 187 189 197 198 160 173 143 161 100 342 59 76 122 197 144 217 145 188 175 162 158 184 94 82 272 197 114 180 189 91 165
216 202 201 204 206 209 214 217 223 236 217 208 226 224 227 242 268 177 186 192 199 171 198 181 184 156 153 94 152 107 136 74 161 219 139 197 180 181 177 212 233 203 214 161 175 170 168